#timestamp,LO_Frequency,Hit 
1499014815.5,286047014.7,N
1499014835.3,286047012.7,N
1499014855.1,286047013.1,N
1499014875.9,286047013.0,N
1499014895.7,286047012.7,N
1499014915.5,286047011.2,N
1499014935.4,286047012.8,N
1499014955.2,286047014.7,N
1499014975.0,286047018.5,N
1499014975.9,286047018.5,N
1499014995.8,286047017.4,N
1499015015.6,286047018.4,N
1499015035.4,286047018.6,N
1499015055.2,286047015.7,N
1499015075.1,286047017.1,N
1499015076.0,286047017.1,N
1499015095.8,286047015.7,N
1499015115.6,286047016.6,N
1499015135.5,286047014.2,N
1499015155.3,286047017.6,N
1499015175.1,286047017.6,N
1499015195.9,286047018.5,N
1499015215.7,286047016.1,N
1499015235.5,286047018.0,N
1499015255.4,286047021.4,N
1499015275.2,286047021.2,N
1499015295.0,286047021.7,N
1499015295.9,286047021.7,N
1499015315.8,286047019.0,N
1499015335.6,286047019.1,N
1499015355.4,286047017.5,N
1499015375.3,286047021.6,N
1499015395.1,286047021.9,N
1499015396.0,286047021.9,N
1499015415.8,286047019.5,N
1499015435.7,286047020.2,N
1499015455.5,286047022.0,N
1499015475.3,286047019.7,N
1499015495.1,286047017.3,N
1499015515.9,286047017.7,N
1499015535.7,286047019.5,N
1499015555.5,286047022.0,N
1499015575.4,286047021.2,N
1499015595.2,286047019.1,N
1499015615.0,286047019.7,N
1499015615.9,286047019.7,N
1499015635.8,286047021.5,N
1499015655.6,286047021.1,N
1499015675.4,286047021.7,N
1499015695.3,286047021.6,N
1499015715.1,286047020.9,N
1499015716.0,286047020.9,N
1499015735.8,286047020.9,N
1499015755.7,286047021.0,N
1499015775.5,286047019.0,N
1499015795.3,286047023.0,N
1499015815.1,286047020.5,N
1499015835.9,286047021.9,N
1499015855.7,286047021.0,N
1499015875.5,286047023.1,N
1499015895.4,286047023.2,N
1499015915.2,286047022.8,N
1499015935.0,286047021.1,N
1499015935.9,286047021.1,N
1499015955.8,286047022.4,N
1499015975.6,286047025.2,N
1499015995.4,286047024.6,N
1499016015.3,286047024.7,N
1499016035.1,286047023.9,N
1499016036.0,286047023.9,N
1499016055.8,286047028.4,N
1499016075.7,286047025.9,N
1499016095.5,286047024.0,N
1499016115.3,286047026.8,N
1499016135.1,286047025.6,N
1499016155.9,286047024.1,N
1499016175.7,286047026.3,N
1499016195.5,286047026.2,N
1499016215.4,286047026.0,N
1499016235.2,286047026.5,N
1499016255.0,286047026.8,N
1499016255.9,286047026.8,N
1499016275.8,286047026.7,N
1499016295.6,286047025.4,N
1499016315.4,286047025.7,N
1499016335.3,286047025.3,N
1499016355.1,286047026.0,N
1499016356.0,286047026.0,N
1499016375.8,286047026.2,N
1499016395.7,286047028.3,N
1499016415.5,286047029.6,N
1499016435.3,286047029.8,N
1499016455.2,286047028.3,N
1499016475.9,286047029.9,N
1499016495.7,286047028.0,N
1499016515.5,286047026.1,N
1499016535.4,286047026.2,N
1499016555.2,286047025.9,N
1499016575.0,286047027.3,N
1499016575.9,286047027.3,N
1499016595.8,286047030.0,N
1499016615.6,286047025.7,N
1499016635.4,286047028.3,N
1499016655.3,286047028.0,N
1499016675.1,286047027.2,N
1499016676.0,286047027.2,N
1499016695.8,286047028.1,N
1499016715.7,286047030.0,N
1499016735.5,286047027.5,N
1499016755.3,286047027.5,N
1499016775.2,286047028.0,N
1499016795.9,286047027.9,N
1499016815.7,286047029.6,N
1499016835.6,286047029.7,N
1499016855.4,286047026.9,N
1499016875.2,286047031.4,N
1499016895.0,286047030.9,N
1499016896.0,286047030.9,N
1499016915.8,286047030.8,N
1499016935.6,286047031.4,N
1499016955.4,286047029.8,N
1499016975.3,286047031.0,N
1499016995.1,286047030.3,N
1499017015.8,286047032.6,N
1499017035.7,286047032.4,N
1499017055.5,286047032.0,N
1499017075.3,286047032.7,N
1499017095.2,286047034.5,N
1499017115.9,286047034.5,N
1499017135.7,286047034.1,N
1499017155.6,286047033.8,N
1499017175.4,286047036.0,N
1499017195.2,286047035.6,N
1499017215.0,286047033.8,N
1499017216.0,286047033.8,N
1499017235.8,286047033.8,N
1499017255.6,286047033.7,N
1499017275.4,286047034.6,N
1499017295.3,286047033.8,N
1499017315.1,286047036.0,N
1499017335.8,286047033.9,N
1499017355.7,286047033.6,N
1499017375.5,286047034.3,N
1499017395.3,286047034.3,N
1499017415.2,286047036.3,N
1499017435.9,286047033.5,N
1499017455.7,286047034.7,N
1499017475.6,286047035.7,N
1499017495.4,286047035.5,N
1499017515.2,286047035.0,N
1499017535.1,286047034.9,N
1499017536.0,286047034.9,N
1499017555.8,286047035.3,N
1499017575.6,286047035.1,N
1499017595.4,286047035.2,N
1499017615.3,286047035.1,N
1499017635.1,286047035.9,N
1499017655.8,286047036.0,N
1499017675.7,286047035.9,N
1499017695.5,286047037.2,N
1499017715.3,286047036.3,N
1499017735.2,286047035.8,N
1499017755.9,286047035.1,N
1499017775.7,286047035.7,N
1499017795.6,286047038.0,N
1499017815.4,286047037.3,N
1499017835.2,286047039.4,N
1499017855.1,286047038.8,N
1499017856.0,286047038.8,N
1499017875.8,286047039.3,N
1499017895.6,286047039.8,N
1499017915.4,286047042.3,N
1499017935.3,286047039.7,N
1499017955.1,286047042.4,N
1499017975.8,286047040.4,N
1499017995.7,286047040.9,N
1499018015.5,286047040.7,N
1499018035.3,286047038.3,N
1499018055.2,286047036.5,N
1499018075.9,286047040.7,N
1499018095.7,286047040.0,N
1499018115.6,286047042.3,N
1499018135.4,286047041.9,N
1499018155.2,286047041.6,N
1499018175.1,286047044.2,N
1499018176.0,286047044.2,N
1499018195.8,286047043.5,N
1499018215.6,286047041.9,N
1499018235.5,286047041.6,N
1499018255.3,286047044.4,N
1499018275.1,286047041.5,N
1499018295.8,286047041.8,N
1499018315.7,286047041.5,N
1499018335.5,286047045.2,N
1499018355.3,286047043.4,N
1499018375.2,286047044.1,N
1499018395.0,286047041.4,N
1499018395.9,286047041.4,N
